TimeEST,TemperatureF,Dew PointF,Humidity,Sea Level PressureIn,VisibilityMPH,Wind Direction,Wind SpeedMPH,Gust SpeedMPH,PrecipitationIn,Events,Conditions,WindDirDegrees,DateUTC
12:53 AM,71.1,68.0,90,30.04,10.0,ENE,6.9,-,N/A,,Overcast,70,2013-11-17 05:53:00
1:53 AM,70.0,66.9,90,30.03,10.0,ENE,6.9,-,N/A,,Clear,60,2013-11-17 06:53:00
2:53 AM,69.1,66.9,93,30.02,10.0,ENE,5.8,-,N/A,,Scattered Clouds,60,2013-11-17 07:53:00
3:53 AM,70.0,68.0,93,30.02,10.0,East,4.6,-,N/A,,Scattered Clouds,80,2013-11-17 08:53:00
4:53 AM,70.0,68.0,93,30.01,10.0,East,3.5,-,N/A,,Clear,100,2013-11-17 09:53:00
5:53 AM,71.1,69.1,93,30.02,10.0,ESE,5.8,-,N/A,,Clear,110,2013-11-17 10:53:00
6:53 AM,72.0,69.1,91,30.03,9.0,East,5.8,-,N/A,,Clear,100,2013-11-17 11:53:00
7:53 AM,73.9,70.0,87,30.05,10.0,ESE,6.9,-,N/A,,Scattered Clouds,120,2013-11-17 12:53:00
8:53 AM,78.1,70.0,76,30.06,10.0,SE,11.5,-,N/A,,Clear,130,2013-11-17 13:53:00
9:53 AM,81.0,69.1,67,30.06,10.0,SE,11.5,19.6,N/A,,Clear,130,2013-11-17 14:53:00
10:53 AM,84.0,68.0,58,30.06,10.0,SE,13.8,18.4,N/A,,Clear,130,2013-11-17 15:53:00
11:53 AM,84.9,69.1,59,30.04,10.0,SSE,11.5,-,N/A,,Partly Cloudy,150,2013-11-17 16:53:00
12:53 PM,86.0,69.1,57,30.02,10.0,South,9.2,20.7,N/A,,Scattered Clouds,170,2013-11-17 17:53:00
1:53 PM,86.0,69.1,57,30.00,10.0,SSE,9.2,-,N/A,,Mostly Cloudy,150,2013-11-17 18:53:00
2:53 PM,84.0,70.0,63,29.98,10.0,SSW,15.0,-,N/A,,Scattered Clouds,210,2013-11-17 19:53:00
3:53 PM,82.0,70.0,67,29.98,10.0,SSW,12.7,-,N/A,,Clear,200,2013-11-17 20:53:00
4:53 PM,80.1,71.1,74,29.99,10.0,SSW,9.2,-,N/A,,Partly Cloudy,200,2013-11-17 21:53:00
5:53 PM,78.1,71.1,79,30.00,10.0,South,5.8,-,N/A,,Clear,190,2013-11-17 22:53:00
6:53 PM,77.0,71.1,82,30.01,10.0,South,3.5,-,N/A,,Clear,190,2013-11-17 23:53:00
7:53 PM,75.9,71.1,85,30.03,10.0,Calm,Calm,-,N/A,,Clear,0,2013-11-18 00:53:00
8:53 PM,75.0,71.1,87,30.04,10.0,Calm,Calm,-,N/A,,Clear,0,2013-11-18 01:53:00
9:53 PM,73.9,71.1,91,30.05,10.0,Calm,Calm,-,N/A,,Clear,0,2013-11-18 02:53:00
10:53 PM,73.0,70.0,90,30.06,10.0,NE,4.6,-,N/A,,Scattered Clouds,40,2013-11-18 03:53:00
11:53 PM,73.0,70.0,90,30.04,10.0,NE,3.5,-,N/A,,Clear,50,2013-11-18 04:53:00